143  
ASUS43 KGLD 190608  
RWRGLD  
 
GOODLAND FORECAST AREA HOURLY WEATHER ROUNDUP  
NATIONAL WEATHER SERVICE GOODLAND KS  
1200 AM MDT TUE JUN 19 2018  
   
..OFFICIAL OBSERVATIONS
 
 
 
CITY SKY/WX TMP DP RH WIND PRES REMARKS
 
GOODLAND KS CLEAR 67 63 87 E13G22 30.01R  
HILL CITY KS CLEAR 73 69 87 MISG 29.94S  
IMPERIAL NEB LGT RAIN 67 64 90 NE14 30.06F  
MCCOOK NEB CLEAR 68 65 90 NE10 29.98R  
AKRON CO CLOUDY 58 57 97 NE17 30.10F  
BURLINGTON CO CLEAR 66 62 87 NE17 30.02R  
LIMON CO PTCLDY 67 55 65 NE25G35 30.03R  

 
   
..UNOFFICIAL OBSERVATIONS
 
 
 
CITY SKY/WX TMP DP RH WIND PRES REMARKS
 
COLBY KS CLEAR 66 63 88 NE13 30.01R  
NORTON KS CLEAR 70 66 88 N8 29.96  
KIT CARSON CO N/A 75 56 51 MISG N/A  
YUMA CO CLOUDY 63 45 51 NE17 30.07R  

 
 
 
CLICK HERE TO GO TO PREVIOUS BULLETINS.

The Nexlab KS Page
The Nexlab CO Page
The Nexlab NE Page Main Text Page